Location: Stillwell
(40.4602°N, 82.0928°W)
Time: 21:36:16
(UTC-04:00)

CZ-4C R/B - Pass Details

Date: 25 May 2018
Orbit: 684 x 1318 km, 63.4° (Epoch: 20 August)

Event Time Altitude Azimuth Distance (km) Brightness Sun altitude
Rises 22:49:13 0° 329° (NNW) 3,816 7.3 -18.5°
Reaches altitude 10° 22:51:50 10° 335° (NNW) 2,949 6.2 -18.8°
Maximum altitude 22:58:46 49° 49° (NE) 1,512 3.5 -19.6°
Enters shadow 23:03:20 25° 112° (ESE) 2,322 4.0 -20.1°
